HGS 1 (ASIASAT 3)

导读 | 星芒AI

HGS 1(又称 AsiaSat 3 或 AsiaSat 3S)是由霍尼韦尔公司制造的一颗通信卫星,于1998年4月由阿里亚娜5号火箭发射。该卫星由霍尼韦尔空间系统公司(Honeywell Space Systems)运营,后被欧洲通信卫星组织(Eutelsat)收购。HGS 1 主要提供跨大西洋的固定卫星服务(FSS),覆盖欧洲、非洲和美洲地区,广泛用于电视广播、企业网络和政府通信。卫星搭载 C 波段和 Ku 波段转发器,设计寿命为 15 年,实际在轨运行多年,为多个行业提供稳定通信支持。

基本信息
目录编号:
25126
目录名称:
HGS 1 (ASIASAT 3)
国际标识:
1997-086A
轨道中心:
EARTH
卫星名称:
HGS 1 (ASIASAT 3)
卫星全名:
--
卫星状态:
在轨 (已飞行10218 天)
发射日期:
1997-12-24 UTC
国别 :
美国 (US)
星等 :
--
轨道信息
数据来源 国际轨道数据 AOE轨道数据
星历时间 2025-12-14T19:26:20+0800
1天前
查看轨道信息
2025-12-13T12:00:00+0800
2天前
查看轨道信息
半长轴 42145.704km 42145.872km
偏心率 0.0045488 0.0045556
轨道倾角 12.871° 12.869°
近地点辐角 43.391° 43.511°
升交点赤经 33.424° 33.435°
平近点角 121.090° 7.760°
近地点 35575.856km 35575.737km
远地点 35959.282km 35959.737km
周期 1435.125分钟 1435.133分钟
每日圈数 1.003397 1.003391
详细信息
使用方式:
暂无
2D轨道图
3D轨道图
轨道高度分析图
轨道倾角分析图
轨道综合分析图
查看轨道综合分析图